This is the latest recevied weather packets stored in our database for station/object ALAKES. If no packets are shown the sender has not sent any weather packets the latest 10 day(s).
| Time | Temp. | Humidity | Pressure | Rain* | Wind** | Luminosity | Snow |
|---|---|---|---|---|---|---|---|
| 1787453961 | 11.11° C | 56% | - | 0 mm | - | - | - |
| 1787453319 | 11.67° C | 100% | - | 0 mm | - | - | - |
| 1787452687 | 12.22° C | 54% | - | 0 mm | - | - | - |
| 1787452037 | 12.78° C | 52% | - | 0 mm | - | - | - |
| 1787451395 | 13.33° C | 52% | - | 0 mm | - | - | - |
| 1787450823 | 13.89° C | 53% | - | 0 mm | - | - | - |
| 1787450769 | 13.89° C | 53% | - | 0 mm | - | - | - |
| 1787450145 | 13.89° C | 55% | - | 0 mm | - | - | - |
| 1787449519 | 14.44° C | 54% | - | 0 mm | - | - | - |
| 1787448896 | 14.44° C | 55% | - | 0 mm | - | - | - |
| 1787448276 | 14.44° C | 57% | - | 0 mm | - | - | - |
| 1787447644 | 14.44° C | 57% | - | 0 mm | - | - | - |
| 1787447114 | 14.44° C | 56% | - | 0 mm | - | - | - |
| 1787447020 | 14.44° C | 56% | - | 0 mm | - | - | - |
| 1787446384 | 15.56° C | 52% | - | 0 mm | - | - | - |
| 1787445811 | 18.33° C | 37% | - | 0 mm | - | - | - |
| 1787445724 | 18.33° C | 37% | - | 0 mm | - | - | - |
| 1787445102 | 18.33° C | 36% | - | 0 mm | - | - | - |
| 1787444468 | 18.89° C | 36% | - | 0 mm | - | - | - |
| 1787443844 | 18.33° C | 36% | - | 0 mm | - | - | - |
| 1787443219 | 19.44° C | 34% | - | 0 mm | - | - | - |
| 1787442593 | 19.44° C | 33% | - | 0 mm | - | - | - |
| 1787441969 | 20° C | 32% | - | 0 mm | - | - | - |
| 1787441351 | 19.44° C | 34% | - | 0 mm | - | - | - |
| 1787440728 | 19.44° C | 33% | - | 0 mm | - | - | - |
* Rain latest 24 hours (hover to see other rain measurements)
** Current wind speed in m/s (hover to see current wind gust speed)